Time,TemperatureF,DewpointF,PressureIn,WindDirection,WindDirectionDegrees,WindSpeedMPH,WindSpeedGustMPH,Humidity,HourlyPrecipIn,Conditions,Clouds,dailyrainin,SolarRadiationWatts/m^2,SoftwareType,DateUTC
2013-01-08 00:09:00,32.6,20.0,30.14,WSW,248,5.0,-999.0,59,-99.99,,,0.00,0,weatherlink.com 1.10,2013-01-08 07:09:00,
2013-01-08 00:24:00,33.7,20.0,30.13,WSW,255,2.0,-999.0,57,-99.99,,,0.00,0,weatherlink.com 1.10,2013-01-08 07:24:00,
2013-01-08 00:39:00,33.8,19.0,30.13,SW,231,4.0,-999.0,56,-99.99,,,0.00,0,weatherlink.com 1.10,2013-01-08 07:39:00,
2013-01-08 00:54:00,33.9,20.0,30.12,WNW,295,4.0,-999.0,56,-99.99,,,0.00,0,weatherlink.com 1.10,2013-01-08 07:54:00,
2013-01-08 01:09:00,31.7,18.0,30.12,SSE,165,15.0,-999.0,58,-99.99,,,0.00,0,weatherlink.com 1.10,2013-01-08 08:09:00,
2013-01-08 01:24:00,33.0,19.0,30.12,SSE,154,8.0,-999.0,56,-99.99,,,0.00,0,weatherlink.com 1.10,2013-01-08 08:24:00,
2013-01-08 01:39:00,30.5,17.0,30.12,West,265,17.0,-999.0,58,-99.99,,,0.00,0,weatherlink.com 1.10,2013-01-08 08:39:00,
2013-01-08 01:54:00,34.8,23.0,30.11,West,272,24.0,-999.0,62,-99.99,,,0.00,0,weatherlink.com 1.10,2013-01-08 08:54:00,
2013-01-08 02:09:00,34.8,24.0,30.11,West,275,22.0,-999.0,66,-99.99,,,0.00,0,weatherlink.com 1.10,2013-01-08 09:09:00,
2013-01-08 02:24:00,34.6,23.0,30.11,WNW,284,28.0,-999.0,62,-99.99,,,0.00,0,weatherlink.com 1.10,2013-01-08 09:24:00,
2013-01-08 02:39:00,35.2,22.0,30.11,WNW,286,22.0,-999.0,60,-99.99,,,0.00,0,weatherlink.com 1.10,2013-01-08 09:39:00,
2013-01-08 02:54:00,34.8,22.0,30.11,NW,310,22.0,-999.0,60,-99.99,,,0.00,0,weatherlink.com 1.10,2013-01-08 09:54:00,
2013-01-08 03:10:00,34.2,21.0,30.11,WNW,290,24.0,-999.0,60,-99.99,,,0.00,0,weatherlink.com 1.10,2013-01-08 10:10:00,
2013-01-08 03:25:00,34.2,21.0,30.11,WNW,294,21.0,-999.0,60,-99.99,,,0.00,0,weatherlink.com 1.10,2013-01-08 10:25:00,
2013-01-08 03:40:00,34.2,21.0,30.10,WNW,282,25.0,-999.0,60,-99.99,,,0.00,0,weatherlink.com 1.10,2013-01-08 10:40:00,
2013-01-08 03:55:00,33.3,21.0,30.11,WNW,287,15.0,-999.0,61,-99.99,,,0.00,0,weatherlink.com 1.10,2013-01-08 10:55:00,
2013-01-08 04:10:00,33.1,21.0,30.11,WNW,296,18.0,-999.0,62,-99.99,,,0.00,0,weatherlink.com 1.10,2013-01-08 11:10:00,
2013-01-08 04:25:00,32.4,21.0,30.11,WNW,288,13.0,-999.0,64,-99.99,,,0.00,0,weatherlink.com 1.10,2013-01-08 11:25:00,
2013-01-08 04:40:00,32.3,21.0,30.12,WNW,296,2.0,-999.0,64,-99.99,,,0.00,0,weatherlink.com 1.10,2013-01-08 11:40:00,
2013-01-08 04:55:00,32.1,21.0,30.11,WNW,287,10.0,-999.0,65,-99.99,,,0.00,0,weatherlink.com 1.10,2013-01-08 11:55:00,
2013-01-08 05:10:00,32.5,21.0,30.11,WNW,292,10.0,-999.0,64,-99.99,,,0.00,0,weatherlink.com 1.10,2013-01-08 12:10:00,
2013-01-08 05:25:00,32.6,21.0,30.11,WNW,286,12.0,-999.0,63,-99.99,,,0.00,0,weatherlink.com 1.10,2013-01-08 12:25:00,
2013-01-08 05:40:00,31.6,20.0,30.12,WSW,246,3.0,-999.0,63,-99.99,,,0.00,0,weatherlink.com 1.10,2013-01-08 12:40:00,
2013-01-08 05:55:00,32.7,21.0,30.13,West,279,14.0,-999.0,62,-99.99,,,0.00,0,weatherlink.com 1.10,2013-01-08 12:55:00,
2013-01-08 06:25:00,29.9,18.0,30.12,SW,236,9.0,-999.0,61,-99.99,,,0.00,0,weatherlink.com 1.10,2013-01-08 13:25:00,
2013-01-08 06:40:00,32.0,21.0,30.11,West,265,16.0,-999.0,63,-99.99,,,0.00,0,weatherlink.com 1.10,2013-01-08 13:40:00,
2013-01-08 06:55:00,33.9,21.0,30.10,West,277,28.0,-999.0,60,-99.99,,,0.00,0,weatherlink.com 1.10,2013-01-08 13:55:00,
2013-01-08 07:10:00,33.4,20.0,30.10,WNW,286,21.0,-999.0,59,-99.99,,,0.00,0,weatherlink.com 1.10,2013-01-08 14:10:00,
2013-01-08 07:25:00,33.9,20.0,30.10,West,273,22.0,-999.0,58,-99.99,,,0.00,0,weatherlink.com 1.10,2013-01-08 14:25:00,
2013-01-08 07:40:00,33.4,20.0,30.09,WNW,292,22.0,-999.0,59,-99.99,,,0.00,5,weatherlink.com 1.10,2013-01-08 14:40:00,
2013-01-08 07:55:00,34.4,20.0,30.09,West,275,31.0,-999.0,57,-99.99,,,0.00,18,weatherlink.com 1.10,2013-01-08 14:55:00,
2013-01-08 08:11:00,35.0,21.0,30.10,West,281,22.0,-999.0,57,-99.99,,,0.00,44,weatherlink.com 1.10,2013-01-08 15:11:00,
2013-01-08 08:26:00,34.6,20.0,30.11,WNW,290,30.0,-999.0,56,-99.99,,,0.00,51,weatherlink.com 1.10,2013-01-08 15:26:00,
2013-01-08 08:41:00,34.6,20.0,30.12,West,280,22.0,-999.0,56,-99.99,,,0.00,63,weatherlink.com 1.10,2013-01-08 15:41:00,
2013-01-08 08:56:00,34.8,20.0,30.10,West,278,26.0,-999.0,56,-99.99,,,0.00,130,weatherlink.com 1.10,2013-01-08 15:56:00,
2013-01-08 09:11:00,35.1,21.0,30.11,West,279,28.0,-999.0,56,-99.99,,,0.00,121,weatherlink.com 1.10,2013-01-08 16:11:00,
2013-01-08 09:26:00,34.3,21.0,30.13,West,276,17.0,-999.0,58,-99.99,,,0.00,211,weatherlink.com 1.10,2013-01-08 16:26:00,
2013-01-08 09:41:00,34.3,20.0,30.14,WNW,283,16.0,-999.0,57,-99.99,,,0.00,118,weatherlink.com 1.10,2013-01-08 16:41:00,
2013-01-08 09:56:00,35.7,21.0,30.13,West,269,20.0,-999.0,56,-99.99,,,0.00,329,weatherlink.com 1.10,2013-01-08 16:56:00,
2013-01-08 10:11:00,37.1,20.0,30.13,WNW,282,14.0,-999.0,51,-99.99,,,0.00,387,weatherlink.com 1.10,2013-01-08 17:11:00,
2013-01-08 10:26:00,38.2,20.0,30.12,WNW,287,30.0,-999.0,49,-99.99,,,0.00,376,weatherlink.com 1.10,2013-01-08 17:26:00,
2013-01-08 10:41:00,38.0,21.0,30.13,WNW,292,23.0,-999.0,50,-99.99,,,0.00,431,weatherlink.com 1.10,2013-01-08 17:41:00,
2013-01-08 10:56:00,38.0,20.0,30.13,West,265,18.0,-999.0,49,-99.99,,,0.00,336,weatherlink.com 1.10,2013-01-08 17:56:00,
2013-01-08 11:11:00,37.9,21.0,30.13,West,273,18.0,-999.0,51,-99.99,,,0.00,427,weatherlink.com 1.10,2013-01-08 18:11:00,
2013-01-08 11:26:00,38.4,22.0,30.13,SW,236,13.0,-999.0,51,-99.99,,,0.00,397,weatherlink.com 1.10,2013-01-08 18:26:00,
2013-01-08 11:41:00,38.3,21.0,30.13,West,275,12.0,-999.0,51,-99.99,,,0.00,362,weatherlink.com 1.10,2013-01-08 18:41:00,
2013-01-08 11:56:00,39.5,22.0,30.12,WNW,288,15.0,-999.0,49,-99.99,,,0.00,387,weatherlink.com 1.10,2013-01-08 18:56:00,
2013-01-08 12:11:00,39.1,21.0,30.10,West,280,17.0,-999.0,48,-99.99,,,0.00,274,weatherlink.com 1.10,2013-01-08 19:11:00,
2013-01-08 12:26:00,39.3,21.0,30.10,WNW,282,19.0,-999.0,48,-99.99,,,0.00,371,weatherlink.com 1.10,2013-01-08 19:26:00,
2013-01-08 12:41:00,39.6,21.0,30.09,WNW,300,24.0,-999.0,48,-99.99,,,0.00,385,weatherlink.com 1.10,2013-01-08 19:41:00,
2013-01-08 12:56:00,39.6,21.0,30.09,West,273,19.0,-999.0,47,-99.99,,,0.00,418,weatherlink.com 1.10,2013-01-08 19:56:00,
2013-01-08 13:11:00,40.0,21.0,30.09,WNW,290,23.0,-999.0,46,-99.99,,,0.00,367,weatherlink.com 1.10,2013-01-08 20:11:00,
2013-01-08 13:26:00,40.3,21.0,30.10,WNW,288,13.0,-999.0,46,-99.99,,,0.00,294,weatherlink.com 1.10,2013-01-08 20:26:00,
2013-01-08 13:41:00,40.6,21.0,30.11,WNW,302,20.0,-999.0,46,-99.99,,,0.00,334,weatherlink.com 1.10,2013-01-08 20:41:00,
2013-01-08 13:56:00,41.0,21.0,30.11,WNW,287,19.0,-999.0,45,-99.99,,,0.00,360,weatherlink.com 1.10,2013-01-08 20:56:00,
2013-01-08 14:11:00,41.4,21.0,30.12,WNW,284,19.0,-999.0,45,-99.99,,,0.00,301,weatherlink.com 1.10,2013-01-08 21:11:00,
2013-01-08 14:26:00,41.8,21.0,30.12,WNW,297,4.0,-999.0,44,-99.99,,,0.00,346,weatherlink.com 1.10,2013-01-08 21:26:00,
2013-01-08 14:41:00,41.1,21.0,30.12,West,269,13.0,-999.0,44,-99.99,,,0.00,255,weatherlink.com 1.10,2013-01-08 21:41:00,
2013-01-08 14:56:00,40.2,21.0,30.13,West,271,10.0,-999.0,46,-99.99,,,0.00,220,weatherlink.com 1.10,2013-01-08 21:56:00,
2013-01-08 15:11:00,39.8,21.0,30.13,WNW,284,13.0,-999.0,47,-99.99,,,0.00,188,weatherlink.com 1.10,2013-01-08 22:11:00,
2013-01-08 15:26:00,39.8,20.0,30.13,WNW,292,16.0,-999.0,46,-99.99,,,0.00,153,weatherlink.com 1.10,2013-01-08 22:26:00,
2013-01-08 15:41:00,39.3,21.0,30.14,WNW,292,15.0,-999.0,48,-99.99,,,0.00,102,weatherlink.com 1.10,2013-01-08 22:41:00,
2013-01-08 15:56:00,38.6,21.0,30.14,WNW,286,10.0,-999.0,49,-99.99,,,0.00,95,weatherlink.com 1.10,2013-01-08 22:56:00,
2013-01-08 16:11:00,38.6,21.0,30.14,NW,308,1.0,-999.0,50,-99.99,,,0.00,65,weatherlink.com 1.10,2013-01-08 23:11:00,
2013-01-08 16:26:00,38.5,21.0,30.14,NNW,341,0.0,-999.0,49,-99.99,,,0.00,42,weatherlink.com 1.10,2013-01-08 23:26:00,
2013-01-08 16:41:00,38.2,20.0,30.15,NW,324,0.0,-999.0,48,-99.99,,,0.00,16,weatherlink.com 1.10,2013-01-08 23:41:00,
2013-01-08 16:56:00,37.7,19.0,30.14,WNW,301,14.0,-999.0,47,-99.99,,,0.00,5,weatherlink.com 1.10,2013-01-08 23:56:00,
2013-01-08 17:11:00,37.4,19.0,30.13,West,278,10.0,-999.0,48,-99.99,,,0.00,0,weatherlink.com 1.10,2013-01-09 00:11:00,
2013-01-08 17:26:00,37.5,19.0,30.14,WNW,296,8.0,-999.0,48,-99.99,,,0.00,0,weatherlink.com 1.10,2013-01-09 00:26:00,
2013-01-08 17:41:00,37.4,19.0,30.15,West,263,8.0,-999.0,48,-99.99,,,0.00,0,weatherlink.com 1.10,2013-01-09 00:41:00,
2013-01-08 17:57:00,36.6,19.0,30.15,West,259,8.0,-999.0,49,-99.99,,,0.00,0,weatherlink.com 1.10,2013-01-09 00:57:00,
2013-01-08 18:12:00,35.3,19.0,30.17,West,259,6.0,-999.0,51,-99.99,,,0.00,0,weatherlink.com 1.10,2013-01-09 01:12:00,
2013-01-08 18:27:00,34.3,19.0,30.16,WSW,238,7.0,-999.0,53,-99.99,,,0.00,0,weatherlink.com 1.10,2013-01-09 01:27:00,
2013-01-08 18:42:00,33.6,18.0,30.15,SW,235,13.0,-999.0,54,-99.99,,,0.00,0,weatherlink.com 1.10,2013-01-09 01:42:00,
2013-01-08 18:57:00,33.2,18.0,30.15,SW,225,8.0,-999.0,55,-99.99,,,0.00,0,weatherlink.com 1.10,2013-01-09 01:57:00,
2013-01-08 19:12:00,32.6,18.0,30.15,WSW,247,6.0,-999.0,56,-99.99,,,0.00,0,weatherlink.com 1.10,2013-01-09 02:12:00,
2013-01-08 19:27:00,33.7,18.0,30.16,SW,227,3.0,-999.0,54,-99.99,,,0.00,0,weatherlink.com 1.10,2013-01-09 02:27:00,
2013-01-08 19:42:00,32.8,18.0,30.16,SSE,150,0.0,-999.0,55,-99.99,,,0.00,0,weatherlink.com 1.10,2013-01-09 02:42:00,
2013-01-08 19:57:00,31.6,18.0,30.17,SE,142,2.0,-999.0,57,-99.99,,,0.00,0,weatherlink.com 1.10,2013-01-09 02:57:00,
2013-01-08 20:13:00,30.1,18.0,30.18,SE,124,5.0,-999.0,61,-99.99,,,0.00,0,weatherlink.com 1.10,2013-01-09 03:13:00,
2013-01-08 20:27:00,30.2,18.0,30.18,SE,134,2.0,-999.0,61,-99.99,,,0.00,0,weatherlink.com 1.10,2013-01-09 03:27:00,
2013-01-08 20:42:00,30.3,18.0,30.19,SE,130,0.0,-999.0,61,-99.99,,,0.00,0,weatherlink.com 1.10,2013-01-09 03:42:00,
2013-01-08 20:57:00,29.3,17.0,30.19,SSW,196,2.0,-999.0,60,-99.99,,,0.00,0,weatherlink.com 1.10,2013-01-09 03:57:00,
2013-01-08 21:12:00,28.7,17.0,30.19,South,186,0.0,-999.0,61,-99.99,,,0.00,0,weatherlink.com 1.10,2013-01-09 04:12:00,
2013-01-08 21:27:00,30.7,18.0,30.19,WSW,247,7.0,-999.0,59,-99.99,,,0.00,0,weatherlink.com 1.10,2013-01-09 04:27:00,
2013-01-08 21:42:00,29.5,17.0,30.19,SW,234,3.0,-999.0,59,-99.99,,,0.00,0,weatherlink.com 1.10,2013-01-09 04:42:00,
2013-01-08 21:57:00,28.3,17.0,30.19,SSE,167,1.0,-999.0,63,-99.99,,,0.00,0,weatherlink.com 1.10,2013-01-09 04:57:00,
2013-01-08 22:12:00,28.3,17.0,30.20,SSE,165,0.0,-999.0,62,-99.99,,,0.00,0,weatherlink.com 1.10,2013-01-09 05:12:00,
2013-01-08 22:27:00,28.8,17.0,30.21,SSE,164,1.0,-999.0,61,-99.99,,,0.00,0,weatherlink.com 1.10,2013-01-09 05:27:00,
2013-01-08 22:42:00,30.8,18.0,30.22,SE,130,0.0,-999.0,59,-99.99,,,0.00,0,weatherlink.com 1.10,2013-01-09 05:42:00,
2013-01-08 22:57:00,31.6,18.0,30.22,SE,130,1.0,-999.0,57,-99.99,,,0.00,0,weatherlink.com 1.10,2013-01-09 05:57:00,
2013-01-08 23:13:00,28.1,16.0,30.23,South,169,0.0,-999.0,62,-99.99,,,0.00,0,weatherlink.com 1.10,2013-01-09 06:13:00,
2013-01-08 23:28:00,28.4,16.0,30.23,South,182,0.0,-999.0,60,-99.99,,,0.00,0,weatherlink.com 1.10,2013-01-09 06:28:00,
2013-01-08 23:43:00,28.1,16.0,30.23,South,175,0.0,-999.0,62,-99.99,,,0.00,0,weatherlink.com 1.10,2013-01-09 06:43:00,
2013-01-08 23:58:00,26.9,15.0,30.25,West,277,0.0,-999.0,62,-99.99,,,0.00,0,weatherlink.com 1.10,2013-01-09 06:58:00,